THOR ABLESTAR DEB

Satellite information

Favourite Embed

Satellite Type and Status

DEBRISIN ORBIT

Key statistics

Satellite THOR ABLESTAR DEB at a glance.

Uptime

23544

Days in orbit

Revolutions

≈ 14.4

Per day

Orbit

LEO

Low Earth Orbit

Inclination

66.7

Latest

Satellite identification and parameters

Extended collection of information and parameters for THOR ABLESTAR DEB.

Object identification

Identified? True

Debris? True

Object name: THOR ABLESTAR DEB

International designator: 1961-015NB

Object number (NORAD): 48823

Object ID (CCSDS): 48823

Country: UNITED STATES OF AMERICA (US)

Current information (Y/N): Y

RCS size: SMALL

Orbital parameters

Period: 100.257 minutes

Inclination: 66.6564 deg

SMA: 7148.861 km

Apoapsis: 854.87 km

Periapsis: 686.581 km

RAAN: 133.813 deg

Eccentricy: 0.01177034

Argument of periapsis: 217.5022 deg

Mean anomaly: 141.7827 deg

Mean motion: 14.3630774 rev/day

Mean motion (dot): 0.00001755 rev/day2

B* drag term: 0.00058266115 1/REarth

Two-line elements (TLE)

Creation date: Dec. 12, 2025, 3:16 a.m.

Reference frame: TEME

Reference center: EARTH

Epoch: Dec. 11, 2025, 4:23 p.m. UTC

TLE line 0: 0 THOR ABLESTAR DEB

TLE line 1: 1 48823U 61015NB 25345.68277484 .00001755 00000-0 58266-3 0 9991

TLE line 2: 2 48823 66.6564 133.8130 0117703 217.5022 141.7827 14.36307740630786

Live tracking on map

Real-time ground track for satellite THOR ABLESTAR DEB.

In-orbit conjunctions

A list of the most updated potential collisions computed for object THOR ABLESTAR DEB.

Target Orbit TCA Probability of collision Miss distance Type
MOZ.5/SAFIR/RUBIN 5/SL-8 SSO 2024-11-10 22:25:30 0.0002554824 57.0 (m) PAYLOAD
NOAA 16 DEB SSO 2024-06-18 07:19:28 0.000125962 352.0 (m) DEBRIS

Associated space launch

THOR ABLESTAR DEB was lifted into orbit during the mission ‘Thor DM-21 Ablestar | Transit 4A & Injun-1 & Solrad 3’, on board a Thor DM-21 Ablestar space rocket.

The launch took place on June 29, 1961, 4:23 a.m. from Space Launch Complex 17B.

For more information about the launch, click the button.

Launch to space Thor DM-21 Ablestar | Transit 4A & Injun-1 & Solrad 3
Thor DM-21 Ablestar | Transit 4A & Injun-1 & Solrad 3

Agency: N/A

Status: Launch Successful

Launch date: June 29, 1961, 4:23 a.m. UTC

Rocket: Thor DM-21 Ablestar

Launch pad: Space Launch Complex 17B

Location: Cape Canaveral SFS, FL, USA

...

Latest news about this satellite

There are no fresh news available about this satellite. Check back as we update our databases every day.


Newsletter sign-up

Weekly statistics, charts and insights to help you stay on top of the space industry.